默认 日期 大小 文件数 浏览量 最新下载 xml
aeon磁力链接相关资源由用户搜索指令自动获取,结果来源于网络,本站不存储任何资料,亦不承担任何责任,请于24小时内删除,搜索到934个磁力,用时1ms。
    {"folder.jpg": 380670, "05 - Perseid.flac": 34769950, "10 - Embryos.flac": 42605021, "03 - Neurospace.flac": 56081152, "06 - Foreign Surface.flac": 55692088, "07 - Quantum Reality.flac": 52372766, "01 - The Final Prophecy.flac": 28753265, "04 - The Dawn Of ...
创建时间: 2021-12-06 07:58:35 大小:455.43 MB 文件数量:11 热度:5 最近下载:2025-03-11 06:42:04
    ... . Everything at Once.mp3": 8994279, "Aeon Station - Observatory.jpg": 52144}
创建时间: 2021-12-12 09:56:07 大小:91.25 MB 文件数量:11 热度:3 最近下载:2025-01-19 22:10:03
    {"cover.jpg": 52144, "08 - Air.mp3": 11750157, "03 - Fade.mp3": 13471106, "05 - Move.mp3": 8597702, "02 - Leaves.mp3": 12663404, "06 - Queens.mp3": 12015567, "01 - Hold On.mp3": 3899849, "07 - Empty Rooms.mp3": 7997945, "09 - Better Love.mp3": 7131724, "10 ...
创建时间: 2021-12-12 20:45:55 大小:89.33 MB 文件数量:11 热度:3 最近下载:2025-01-09 16:27:04
    {"folder.jpg": 1132376, "04 - Ashes To Ashes.flac": 94144536, "02 - Tempting Voices.flac": 58312198, "05 - ...Dust To Dust.flac": 77620559, "01 - Beginning Of The End.flac": 51092998, "03 - Defying The Path Foregone.flac": 93448225}
创建时间: 2021-12-12 21:59:40 大小:358.34 MB 文件数量:6 热度:4 最近下载:2025-01-10 14:36:06
    {"cover.jpg": 1019175, "04 - Ashes To Ashes.mp3": 33590691, "02 - Tempting Voices.mp3": 19631895, "05 - ...Dust To Dust.mp3": 26589871, "01 - Beginning Of The End.mp3": 18016493, "03 - Defying The Path Foregone.mp3": 32750609}
创建时间: 2021-12-15 20:41:50 大小:125.5 MB 文件数量:6 热度:3 最近下载:2025-01-03 14:21:06
    {"IRR.jpg": 67000, "2005.jpg": 180433, "Aeon Flux 2005.mkv": 2743849100, "Gramy z Vinyla.png": 207490, "ZAPRASZAM-d-11.url": 116, "Inne,Radio-ZAPRASZAM.url": 178}
创建时间: 2021-12-25 14:15:02 大小:2.56 GB 文件数量:6 热度:3 最近下载:2025-01-25 04:38:02
    {"Cover.jpg": 61490, "04. Unohda Ei Ikina.mp3": 8706324, "05. Essence of Death.mp3": 6495503, "03. Godfear Eradication.mp3": 10906883, "01. Cultivate Our Blood in Aeon.mp3": 9786760, "02. Closure of Empyrean Delirium.mp3": 5784286}
创建时间: 2021-12-31 09:03:22 大小:39.81 MB 文件数量:6 热度:4 最近下载:2025-03-09 18:45:04
    {"unarc.exe": 214016, "README.txt": 338, "SIMPLEX.EXE": 143872, "SIMPLEX.INI": 199, "Simplex.bin": 276385057, "bassmod.dll": 34308, "simplex.nfo": 6333, "IGG-GAMES.COM.url": 196, "PCGAMESTORRENTS.COM.url": 202, "OneHack.us Premium Cracked Accounts- ...
创建时间: 2022-01-02 09:54:40 大小:263.96 MB 文件数量:10 热度:6 最近下载:2025-01-10 11:19:06
    {"simplex.nfo": 6333, "3DMGAME-Aeon.Drive.v1.5.01.1919-SiMPLEX.rar": 285136787}
创建时间: 2022-01-03 17:49:23 大小:271.93 MB 文件数量:2 热度:5 最近下载:2025-01-20 07:45:03
    {"Aeon.Must.Die.part1.rar": 1048576000, "Aeon.Must.Die.part2.rar": 1048576000, "Aeon.Must.Die.part3.rar": 591270012}
创建时间: 2022-01-03 19:57:50 大小:2.5 GB 文件数量:3 热度:4 最近下载:2025-02-17 14:10:03
    {"6 Free.flac": 35003357, "5 Farewell.flac": 38742989, "9 Fireflies.flac": 30056803, "8 Music Plays.flac": 34643157, "10 Destination.flac": 48333654, "3 Breathe Again.flac": 29859060, "1 Burn the Witch.flac": 32290699, "7 Enough Is Enough.flac": 28564544, ...
创建时间: 2022-01-04 13:03:22 大小:325.25 MB 文件数量:10 热度:4 最近下载:2025-01-04 21:43:02
    {"folder.jpg": 991044, "08 - Air.flac": 31719686, "03 - Fade.flac": 38076280, "05 - Move.flac": 19052927, "02 - Leaves.flac": 33077107, "06 - Queens.flac": 33563623, "01 - Hold On.flac": 7313422, "07 - Empty Rooms.flac": 19978194, "09 - Better Love.flac": ...
创建时间: 2022-01-04 17:36:15 大小:237.56 MB 文件数量:11 热度:3 最近下载:2025-02-16 23:31:03
    {"cover.jpg": 858865, "07 - Rythmia.mp3": 5935779, "02 - Pandemia.mp3": 4744598, "08 - Paranoia.mp3": 9991030, "03 - Leviathan.mp3": 9435147, "04 - Dechromion.mp3": 6450920, "05 - Earth Awake.mp3": 8696408, "06 - Face Reality.mp3": 8416377, "01 - Legions ...
创建时间: 2022-01-06 07:19:32 大小:62.41 MB 文件数量:9 热度:4 最近下载:2025-04-13 04:26:02
    {"06 - Etched.flac": 59137851, "03 - Eternal Sleep.flac": 26277770, "07 - The Atavistic.flac": 34802450, "02 - Burning Paradigm.flac": 34783127, "01 - The Seed of Misery.flac": 58219462, "04 - Into the Gravity Well.flac": 32803653, "05 - (Return of The) ...
创建时间: 2022-01-07 17:22:04 大小:275.8 MB 文件数量:7 热度:3 最近下载:2025-02-05 08:04:07
    {"更多免费最新高清电影双击进入....url": 43311, "魔力女战士.Aeon.Flux.2005.BluRay.1080p.DTS.x264.mkv": 5903215487}
创建时间: 2022-01-10 10:34:07 大小:5.5 GB 文件数量:2 热度:7 最近下载:2025-02-03 11:39:03
    {"folder.jpg": 971588, "01 - Fear My Name.flac": 57256502, "04 - Beyond the Veil.flac": 66245745, "05 - The Journey Ends.flac": 73337233, "03 - One Last Farewell.flac": 66335728, "02 - Tonight We Will Rise.flac": 52020557}
创建时间: 2022-01-13 22:58:41 大小:301.52 MB 文件数量:6 热度:3 最近下载:2025-02-06 06:22:06
    {"01. Asteroid, KINETICA & Inversed - Aeon.mp3": 9146762, "02. Asteroid, KINETICA & Inversed - Aeon (Extended Mix).mp3": 17710762}
创建时间: 2022-01-16 22:17:40 大小:25.61 MB 文件数量:2 热度:4 最近下载:2025-01-09 21:35:08
    {"CODEX": {"Engine": {"Binaries": {"ThirdParty": {"Steamworks": {"Steamv147": {"Win64": {"steam_emu.ini": 1671, "steam_api64.cdx": 290768, "steam_api64.dll": 411560}}}}}}, "AeonMustDie": {"Binaries": {"Win64": {"AeonMustDie-Win64-Shipping.cdx": 72934232, " ...
创建时间: 2022-01-19 09:52:23 大小:189.62 MB 文件数量:9 热度:4 最近下载:2025-01-26 19:23:02
    {"cover (1).jpg": 141410, "07 - Rythmia.mp3": 6077890, "02 - Pandemia.mp3": 4886710, "08 - Paranoia.mp3": 10133142, "03 - Leviathan.mp3": 9577260, "04 - Dechromion.mp3": 6593034, "05 - Earth Awake.mp3": 8838523, "06 - Face Reality.mp3": 8558493, "01 - ...
创建时间: 2022-01-22 14:41:09 大小:62.81 MB 文件数量:9 热度:7 最近下载:2025-04-13 04:30:02
    {"CODEX": {"Engine": {"Binaries": {"ThirdParty": {"Steamworks": {"Steamv147": {"Win64": {"steam_emu.ini": 1671, "steam_api64.cdx": 290768, "steam_api64.dll": 411560}}}}}}, "AeonMustDie": {"Binaries": {"Win64": {"AeonMustDie-Win64-Shipping.cdx": 72934232, " ...
创建时间: 2022-01-29 06:49:23 大小:189.62 MB 文件数量:13 热度:5 最近下载:2025-02-06 14:19:07